Theta_e
334 332 330 329 328 328 328 330 332 336 336 338 337 335 334 337 334 333 334 334 334 334 333 333 333 332 333 335 333 332 332 331 331
331 330 329 327 326 326 328 331 334 334 336 335 333 331 332 333 333 332 332 331 331 331 331 330 330 332 334 334 332 330 330 328 328
330 328 327 325 325 325 329 331 334 334 333 332 331 329 330 328 328 329 329 331 332 335 333 331 333 335 334 332 331 331 330 327 326
328 326 325 325 325 327 328 329 332 332 330 329 328 327 328 325 326 326 326 334 337 336 332 332 331 333 333 333 331 329 328 325 324
327 328 326 325 326 326 327 329 331 330 328 326 325 326 328 325 325 325 329 330 330 333 334 333 332 331 330 328 327 325 324 324 323
323 325 326 326 325 325 327 331 330 327 324 323 322 323 322 323 324 325 330 329 328 329 328 329 329 327 325 325 324 324 324 324 324
322 323 326 326 326 325 325 329 327 324 319 318 320 319 320 322 323 325 329 326 326 325 325 325 325 324 324 324 323 323 322 322 322
320 320 321 321 320 317 316 316 316 318 318 318 318 319 320 323 324 325 328 325 326 326 325 324 323 323 322 322 321 321 321 320 320
317 316 318 316 314 312 312 311 312 316 317 317 316 317 319 321 322 323 326 324 324 324 323 322 321 320 320 320 319 319 319 319 319
312 312 312 312 313 312 312 311 310 312 315 316 316 316 317 319 320 321 323 323 322 321 320 319 320 320 319 319 318 318 318 319 318
312 312 312 312 313 313 312 311 310 310 314 314 315 316 317 318 319 319 318 319 318 317 316 317 318 318 318 317 317 317 317 317 317
312 312 312 312 313 313 312 311 311 310 310 312 314 315 316 316 316 316 315 314 315 313 313 314 315 315 315 315 315 315 314 315 315
312 312 312 313 313 312 311 311 310 309 309 310 313 315 315 315 314 313 311 309 309 308 309 310 311 311 312 313 313 314 313 313 313
311 312 312 313 312 311 311 310 310 308 309 309 313 314 315 314 312 308 308 307 306 304 304 305 306 307 308 310 311 312 312 312 312
312 312 312 313 311 310 309 309 310 309 308 308 309 311 313 313 310 307 306 304 303 302 302 302 302 303 305 307 309 310 311 311 311
312 312 311 312 311 309 307 307 306 307 308 306 305 306 309 310 308 307 304 302 302 301 301 301 302 301 301 305 307 308 309 309 310
312 311 310 311 310 307 305 307 305 305 307 305 304 300 302 305 306 304 302 300 301 301 300 300 300 300 301 302 302 304 305 306 307
312 312 311 310 310 306 305 306 305 302 301 304 303 300 299 301 303 303 301 301 302 301 301 299 299 299 300 300 299 301 302 304 306
313 312 311 310 309 308 308 305 305 304 300 301 299 301 303 298 296 301 302 301 301 301 301 300 299 299 299 298 297 299 299 302 304
312 311 311 309 307 306 305 305 303 303 301 301 299 299 298 299 296 295 297 300 300 301 299 299 298 297 297 297 296 297 298 300 302
Wind_Speed
14 13 13 13 13 12 12 12 12 14 15 16 14 13 8 10 11 10 10 11 13 13 12 12 12 10 10 13 14 15 14 14 14
14 13 13 13 12 13 13 13 13 15 15 15 14 12 6 9 8 8 9 11 13 11 11 11 10 12 14 15 14 13 14 12 14
14 14 13 13 13 13 14 14 15 15 15 14 14 10 6 8 8 9 9 11 12 12 13 12 13 15 15 15 14 15 15 14 15
15 14 14 14 14 14 14 14 15 15 15 14 13 10 6 9 7 9 8 10 15 15 12 12 14 15 17 16 16 16 15 14 13
15 13 14 14 14 14 13 15 16 15 15 14 13 9 4 10 8 8 8 11 13 15 17 16 17 17 16 16 15 14 13 13 12
14 11 12 14 15 14 14 16 16 15 14 13 9 5 6 7 6 7 10 13 11 13 14 15 15 15 14 14 14 12 12 13 13
11 10 10 14 14 14 14 14 15 11 9 7 6 5 8 7 8 8 11 13 12 13 14 13 13 13 13 14 14 13 13 14 14
9 8 8 9 11 9 10 10 6 8 7 6 6 7 7 6 7 10 12 13 14 14 14 13 13 13 13 13 13 12 13 12 13
8 7 8 8 6 9 8 6 8 9 9 9 9 8 7 6 7 10 12 12 13 13 13 13 13 12 12 12 12 12 12 12 13
8 8 7 7 8 8 8 8 8 9 9 8 9 9 9 9 7 8 12 12 12 14 13 13 12 12 13 12 12 12 12 12 13
8 7 7 7 7 7 8 8 8 8 8 9 9 9 8 9 9 8 9 12 12 13 13 12 13 13 13 13 12 12 12 12 13
9 7 6 6 7 9 9 8 8 8 8 9 8 8 9 8 9 7 7 9 14 14 13 12 12 12 13 13 12 12 12 13 13
8 7 7 7 7 7 8 9 8 8 8 8 7 6 7 8 8 7 6 5 5 10 11 12 12 12 13 13 12 12 12 12 12
7 6 7 9 7 7 7 8 8 8 8 8 7 6 6 7 6 8 8 7 5 5 10 11 12 13 13 13 13 13 12 12 13
8 6 8 8 7 7 7 8 8 8 8 8 7 6 5 5 5 7 6 6 6 6 6 4 6 11 12 13 13 13 14 14 14
8 7 8 7 7 8 8 8 11 8 9 8 7 5 5 5 5 4 5 5 5 5 5 4 3 4 8 11 13 15 16 17 17
9 8 7 7 6 9 10 10 8 6 4 4 5 5 4 3 4 4 4 5 4 4 5 5 5 5 4 6 11 16 17 18 19
9 9 6 6 6 6 7 8 9 7 3 3 1 3 3 7 4 5 4 5 2 2 3 4 5 5 4 5 9 16 17 18 20
8 9 8 6 4 6 5 5 4 6 6 4 3 3 3 3 5 4 5 4 4 1 3 3 4 6 4 6 9 15 17 19 20
9 8 9 7 5 5 4 4 5 4 6 4 4 3 3 3 1 4 4 4 3 0 3 2 4 4 5 6 10 15 16 18 20
Wind_Direction
131 126 125 124 123 121 121 119 123 120 112 107 103 96 100 125 98 93 86 73 71 65 65 62 64 65 72 70 62 55 51 41 38
133 132 129 128 126 125 126 120 126 118 110 109 101 93 61 107 103 90 77 71 71 75 78 76 76 86 82 74 64 60 53 43 38
138 135 132 130 130 129 127 124 122 115 112 105 99 95 108 112 101 96 85 83 90 89 91 85 79 77 81 74 70 70 63 48 39
140 136 135 130 130 129 126 128 125 117 111 104 96 82 38 107 104 102 94 81 89 76 92 95 92 82 74 70 65 53 46 43 41
140 136 131 131 125 125 125 131 123 115 108 102 98 98 144 105 107 94 90 86 82 76 77 81 77 72 63 59 57 54 53 49 44
157 116 137 136 134 127 125 124 119 110 102 101 107 190 112 111 98 98 87 91 88 71 66 66 66 66 65 64 63 59 50 43 36
136 119 131 129 125 123 121 116 128 156 130 121 164 108 111 106 102 94 91 87 86 86 81 81 79 75 68 59 50 44 40 34 28
150 144 141 134 142 132 136 147 150 138 132 129 116 114 114 107 96 89 99 103 99 91 82 75 70 68 66 57 48 41 37 30 29
158 158 153 149 155 146 148 140 136 136 139 129 123 122 120 112 103 79 73 90 91 89 83 75 70 66 62 54 44 39 32 28 25
160 156 161 154 155 151 145 143 138 136 132 129 123 119 119 116 108 99 58 75 83 83 77 69 66 63 54 45 38 32 29 23 18
163 159 159 154 159 153 146 144 137 132 136 132 126 118 114 116 113 112 83 59 83 80 69 62 57 53 45 36 35 29 25 17 11
161 157 160 153 153 147 135 133 131 129 128 130 130 127 121 118 114 112 115 99 61 65 57 54 52 43 35 27 24 25 19 12 7
168 159 155 153 152 154 146 144 139 136 135 137 131 127 124 119 114 115 114 104 108 78 59 57 47 36 27 22 16 12 9 6 359
170 164 152 156 153 158 149 145 142 137 132 129 129 129 130 126 122 115 108 102 93 91 81 63 47 37 27 18 12 6 358 353 349
163 160 159 158 154 153 149 144 141 134 129 122 115 112 120 131 127 122 114 103 98 77 62 59 69 41 27 17 13 8 2 354 345
162 158 162 168 162 156 149 140 135 127 135 122 114 109 124 136 138 136 124 114 103 82 69 56 38 40 38 29 23 13 2 352 344
158 159 165 172 153 151 150 149 140 117 156 149 144 153 146 156 158 153 148 129 122 96 59 49 43 28 24 32 19 6 353 342 337
153 154 157 159 159 157 158 163 162 149 150 149 305 158 164 150 174 184 172 169 150 113 58 51 37 25 19 357 2 356 346 339 335
146 144 144 147 150 158 164 166 156 161 147 127 73 55 89 174 165 192 201 215 213 115 28 39 48 19 20 5 355 348 339 335 334
141 141 138 133 129 126 134 135 131 130 144 129 135 86 60 70 61 162 164 207 200 228 4 22 20 34 11 345 352 339 339 336 334